Starlink 1767

operational
NORAD ID: 46345 Int'l Des: 2020-062 Owner: SPXS Country: US Constellation: starlink
LEOCIRCULAR

Über Starlink 1767

Beschreibung wird geladen...

Live-Position

3D-Globus wird geladen...

Nächste Überflüge

Höhenverlauf

Altitude vs Time

uPlot chart will show altitude changes over time

Zweizeiliger Elementsatz

1 46345U 20062W 25350.00003472 .00228941 00000-0 21255-2 0 9996
2 46345 53.0413 352.6421 0003390 36.5050 346.4286 15.66202338 5933
Epoch: 16. Dez. 2025 • Age: 9 hours

Aktueller Status

Höhe 374.4 km
Geschwindigkeit 7.69 km/s
Subsatellitenpunkt 53.19°N, 145.81°W
Startdatum 3. Sept. 2020
Alter 5.2 years
Typ internet

Technische Details

Klassifizierung Payload
Masse 260.00 kg
Trockenmasse 248.00 kg
Gesamtmasse 260.00 kg
Länge 0.20 m
Durchmesser 2.80 m
Spannweite 9.00 m
Form Box + pan
Hersteller SPXS
Bus-Typ Starlink
Phasenstatus In Orbit
Besitzer/Staat SPXS/US

Große Konstellationen

Loading constellations...